Terminal Aerodrome Forecast
Issued by NWS Springfield, MO

Home | Current Version | Previous Version | Text Only | Print | Product List | Glossary On
Versions: 1 2 3 4 5 6 7 8 9 10 11 12 13 14 15 16 17 18 19 20 21 22
254
FTUS43 KSGF 261534 AAC
TAFSGF
TAF AMD
KSGF 261534Z 2616/2712 08005KT P6SM BKN020
     FM261800 09005KT P6SM VCTS BKN050CB
     FM270100 07005KT 6SM BR SCT250=

USA.gov is the U.S. government's official web portal to all federal, state and local government web resources and services.